Weather History for Ouarzazate, Morocco

Change the Weather History Date:

Monday, January 21, 2013

  Actual Average Record
Temperature  
Mean Temperature 54 °F -  
Max Temperature 71 °F 66 °F - ()
Min Temperature 37 °F 38 °F - ()
Degree Days  
Heating Degree Days 11    
Growing Degree Days 4 (Base 50)    
Moisture  
Dew Point 27 °F    
Average Humidity 34    
Maximum Humidity 56    
Minimum Humidity 8    
Precipitation  
Precipitation 0.00 in 0.02 in - ()
Sea Level Pressure  
Sea Level Pressure 29.98 in    
Wind  
Wind Speed 4 mph ()    
Max Wind Speed 15 mph    
Max Gust Speed -    
Visibility 9.8 miles    
Events      
T = Trace of Precipitation, MM = Missing Value Source: Averaged Metar Reports

Daily Weather History Graph

Daily Weather History Graph

Search for Another Location

Airport:

Trip Planner

Search our weather history database for the weather conditions in past years. The results will help you decide how hot, cold, wet, or windy it might be!

Date:

Astronomy

Jan. 21, 2013 Rise Set
Actual Time 7:24 AM WET 5:53 PM WET
Civil Twilight 6:58 AM WET 6:19 PM WET
Nautical Twilight 6:29 AM WET 6:48 PM WET
Astronomical Twilight 6:00 AM WET 7:17 PM WET
Moon 1:25 PM WET (1/21) 2:40 AM WET (1/21)
Length of Visible Light 11h 20m
Length of Day
10h 28m
Waxing Gibbous, 73% of the Moon is Illuminated
Jan 21
Waxing Gibbous
Jan 27
Full
Feb 3
Last Quarter
Feb 10
New
Feb 17
First Quarter

Hourly Weather History & Observations

Time (WET) Temp. Windchill Dew Point Humidity Pressure Visibility Wind Dir Wind Speed Gust Speed Precip Events Conditions
12:00 AM 53 °F - 27 °F 24%  in 12 mi NW 4.6 mph - -   Clear
12:00 AM 53.6 °F - 26.6 °F 35% 30.01 in - WNW 4.6 mph - N/A   Clear
1:00 AM 50.0 °F - 24.8 °F 37% 29.95 in - WNW 4.6 mph - N/A   Clear
2:00 AM 46.4 °F 44.3 °F 26.6 °F 46% 29.98 in - WNW 4.6 mph - N/A   Clear
3:00 AM 48 °F - 31 °F 40%  in 12 mi WNW 3.5 mph - -   Clear
3:00 AM 48.2 °F - 24.8 °F 40% 29.98 in - NNW 3.5 mph - N/A   Clear
4:00 AM 44.6 °F 42.2 °F 26.6 °F 49% 29.98 in - WNW 4.6 mph - N/A   Clear
5:00 AM 42.8 °F 40.1 °F 26.6 °F 53% 29.98 in - WNW 4.6 mph - N/A   Clear
6:00 AM 39 °F - 22 °F 38%  in 12 mi Calm Calm - -   Clear
6:00 AM 41.0 °F - 23.0 °F 49% 29.98 in - Calm Calm - N/A   Clear
7:00 AM 41.0 °F - 23.0 °F 49% 29.98 in - Calm Calm - N/A   Clear
8:00 AM 37.4 °F - 23.0 °F 56% 30.01 in - Variable 2.3 mph - N/A   Clear
9:00 AM 45 °F - 25 °F 32%  in 12 mi Calm Calm - -   Clear
9:00 AM 46.4 °F - 24.8 °F 43% 30.01 in - Calm Calm - N/A   Clear
10:00 AM 50.0 °F - 30.2 °F 47% 30.04 in - ENE 2.3 mph - N/A   Clear
11:00 AM 55.4 °F - 30.2 °F 38% 30.04 in - ENE 2.3 mph - N/A   Clear
12:00 PM 60 °F - 29 °F 19%  in 12 mi ESE 2.3 mph - -   Clear
12:00 PM 60.8 °F - 28.4 °F 29% 30.01 in - ESE 2.3 mph - N/A   Clear
1:00 PM 66.2 °F - 24.8 °F 21% 29.98 in - Calm Calm - N/A   Clear
2:00 PM 68.0 °F - 23.0 °F 18% 29.92 in - South 2.3 mph - N/A   Clear
3:00 PM 69 °F - 21 °F 8%  in 12 mi East 5.8 mph - -   Clear
3:00 PM 69.8 °F - 21.2 °F 16% 29.92 in - East 5.8 mph - N/A   Clear
4:00 PM 69.8 °F - 23.0 °F 17% 29.92 in 6.2 mi West 15.0 mph - N/A   Partly Cloudy
5:00 PM 68.0 °F - 26.6 °F 21% 29.92 in 6.2 mi West 13.8 mph - N/A   Partly Cloudy
6:00 PM 65 °F - 28 °F 14%  in 12 mi WNW 12.7 mph - -   Scattered Clouds
6:00 PM 66.2 °F - 28.4 °F 24% 29.92 in 6.2 mi WNW 12.7 mph - N/A   Partly Cloudy
7:00 PM 60.8 °F - 30.2 °F 31% 29.95 in 6.2 mi West 6.9 mph - N/A   Partly Cloudy
8:00 PM 59.0 °F - 32.0 °F 36% 29.98 in 6.2 mi West 5.8 mph - N/A   Partly Cloudy
9:00 PM 58 °F - 33 °F 26%  in 12 mi West 1.2 mph - -   Clear
9:00 PM 57.2 °F - 32.0 °F 38% 30.01 in - West 1.2 mph - N/A   Clear
10:00 PM 55.4 °F - 32.0 °F 41% 30.01 in - West 3.5 mph - N/A   Clear
11:00 PM 55.4 °F - 32.0 °F 41% 30.01 in - WSW 4.6 mph - N/A   Clear